Location: Ar Ranvel
(48.3000°N, 4.8833°W)
Time: 14:10:28
(UTC+00:00)

ISS - Pass Details

Date: 02 October 2021
Orbit: 418 x 423 km, 51.6° (Epoch: 19 October)

Event Time Altitude Azimuth Distance (km) Brightness Sun altitude
Rises 20:39:55 0° 283° (WNW) 2,366 1.2 -27.2°
Reaches altitude 10° 20:42:45 10° 257° (WSW) 1,499 -0.4 -27.7°
Enters shadow 20:43:19 12° 248° (WSW) 1,388 -0.7 -27.7°
